| time (UTC) | temp F | wind direction | speed knots | gust knots | rain 1hr in | rain 24hr in | rain mn in | humidity % | barometer mb |
| 20260509150050 | 72 | 238 | 1.7 | 4.3 | 0.00 | 0.00 | 0.00 | 90 | 1013.9 |
| 20260509144606 | 72 | 265 | 1.7 | 5.2 | 0.00 | 0.00 | 0.00 | 90 | 1014.0 |
| 20260509143056 | 72 | 252 | 1.7 | 5.2 | 0.00 | 0.00 | 0.00 | 90 | 1013.7 |
| 20260509141555 | 72 | 244 | 1.7 | 5.2 | 0.00 | 0.00 | 0.00 | 92 | 1013.7 |
| 20260509140100 | 71 | 256 | 0.9 | 3.5 | 0.00 | 0.00 | 0.00 | 94 | 1013.6 |
| 20260509134553 | 70 | 0 | 0.9 | 3.5 | 0.00 | 0.00 | 0.00 | 94 | 1013.7 |
| 20260509133058 | 69 | 0 | 0.0 | 0.9 | 0.00 | 0.00 | 0.00 | 95 | 1013.8 |
| 20260509131557 | 68 | 72 | 0.0 | 1.7 | 0.00 | 0.00 | 0.00 | 95 | 1014.0 |
| 20260509130055 | 68 | 0 | 0.0 | 1.7 | 0.00 | 0.00 | 0.00 | 95 | 1014.0 |
| 20260509124550 | 67 | 0 | 0.0 | 0.9 | 0.00 | 0.00 | 0.00 | 95 | 1013.9 |
| 20260509123049 | 67 | 0 | 0.0 | 2.6 | 0.00 | 0.00 | 0.00 | 95 | 1014.1 |
| 20260509121601 | 66 | 0 | 0.0 | 1.7 | 0.00 | 0.00 | 0.00 | 96 | 1013.9 |
| 20260509120057 | 65 | 0 | 0.0 | 0.0 | 0.00 | 0.00 | 0.00 | 96 | 1013.8 |
| 20260509114555 | 65 | 0 | 0.0 | 0.0 | 0.00 | 0.00 | 0.00 | 96 | 1013.5 |
| 20260509113055 | 63 | 0 | 0.0 | 0.0 | 0.00 | 0.00 | 0.00 | 95 | 1013.3 |
| 20260509111603 | 62 | 0 | 0.0 | 0.0 | 0.00 | 0.00 | 0.00 | 95 | 1013.1 |
| 20260509110050 | 62 | 0 | 0.0 | 0.9 | 0.00 | 0.00 | 0.00 | 95 | 1013.1 |
| 20260509104552 | 61 | 0 | 0.0 | 0.0 | 0.00 | 0.00 | 0.00 | 95 | 1012.7 |
| 20260509103100 | 62 | 0 | 0.0 | 0.0 | 0.00 | 0.00 | 0.00 | 95 | 1012.7 |
| 20260509101553 | 63 | 0 | 0.0 | 0.0 | 0.00 | 0.00 | 0.00 | 95 | 1012.6 |
| 20260509100052 | 63 | 0 | 0.0 | 0.0 | 0.00 | 0.00 | 0.00 | 94 | 1012.7 |
| 20260509094551 | 63 | 0 | 0.0 | 1.7 | 0.00 | 0.00 | 0.00 | 95 | 1012.6 |
| 20260509093053 | 63 | 0 | 0.0 | 0.9 | 0.00 | 0.00 | 0.00 | 95 | 1012.7 |
| 20260509091552 | 63 | 0 | 0.0 | 0.9 | 0.00 | 0.00 | 0.00 | 95 | 1012.7 |
| 20260509090104 | 63 | 0 | 0.0 | 0.0 | 0.00 | 0.00 | 0.00 | 95 | 1013.0 |
| 20260509084548 | 64 | 0 | 0.0 | 1.7 | 0.00 | 0.00 | 0.00 | 94 | 1013.0 |
| 20260509083058 | 64 | 0 | 0.0 | 0.0 | 0.00 | 0.00 | 0.00 | 95 | 1013.5 |
| 20260509081551 | 64 | 0 | 0.0 | 1.7 | 0.00 | 0.00 | 0.00 | 95 | 1013.2 |
| 20260509080058 | 64 | 0 | 0.0 | 1.7 | 0.00 | 0.00 | 0.00 | 94 | 1012.8 |
| 20260509074552 | 64 | 0 | 0.0 | 1.7 | 0.00 | 0.00 | 0.00 | 94 | 1013.3 |
| 20260509073049 | 64 | 28 | 0.9 | 2.6 | 0.00 | 0.00 | 0.00 | 95 | 1013.5 |
| 20260509071550 | 64 | 325 | 0.0 | 0.9 | 0.00 | 0.00 | 0.00 | 94 | 1013.1 |
| 20260509070053 | 63 | 0 | 0.0 | 0.9 | 0.00 | 0.00 | 0.00 | 94 | 1012.5 |
| 20260509064554 | 64 | 200 | 0.9 | 2.6 | 0.00 | 0.00 | 0.00 | 94 | 1013.6 |
| 20260509063056 | 64 | 0 | 0.0 | 0.9 | 0.00 | 0.00 | 0.00 | 94 | 1013.6 |
| 20260509061551 | 64 | 0 | 0.9 | 1.7 | 0.00 | 0.00 | 0.00 | 94 | 1014.0 |
| 20260509060100 | 63 | 304 | 0.0 | 1.7 | 0.00 | 0.00 | 0.00 | 94 | 1013.7 |
| 20260509054548 | 63 | 0 | 0.0 | 0.9 | 0.00 | 0.00 | 0.00 | 93 | 1014.5 |
| 20260509053127 | 64 | 0 | 0.0 | 0.9 | 0.00 | 0.00 | 0.00 | 94 | 1014.6 |
| 20260509051549 | 64 | 0 | 0.0 | 1.7 | 0.00 | 0.00 | 0.00 | 94 | 1014.8 |
| 20260509050052 | 64 | 24 | 0.0 | 1.7 | 0.00 | 0.00 | 0.00 | 94 | 1015.1 |
| 20260509044553 | 64 | 0 | 0.0 | 1.7 | 0.00 | 0.00 | 0.00 | 93 | 1015.4 |
| 20260509043104 | 64 | 29 | 0.0 | 1.7 | 0.00 | 0.00 | 0.00 | 93 | 1015.1 |
| 20260509041601 | 63 | 0 | 0.0 | 0.0 | 0.00 | 0.00 | 0.00 | 92 | 1014.7 |
| 20260509034603 | 63 | 0 | 0.0 | 0.0 | 0.00 | 0.00 | 0.00 | 91 | 1015.8 |
| 20260509033049 | 63 | 0 | 0.0 | 0.0 | 0.00 | 0.00 | 0.00 | 91 | 1016.1 |
| 20260509031603 | 64 | 0 | 0.0 | 0.0 | 0.00 | 0.00 | 0.00 | 91 | 1016.0 |
| 20260509030056 | 64 | 0 | 0.0 | 0.0 | 0.00 | 0.00 | 0.00 | 90 | 1016.0 |
| 20260509024552 | 64 | 0 | 0.0 | 0.0 | 0.00 | 0.00 | 0.00 | 89 | 1016.3 |
| 20260509023057 | 64 | 0 | 0.0 | 0.9 | 0.00 | 0.00 | 0.00 | 88 | 1016.5 |
| 20260509021552 | 64 | 281 | 0.0 | 1.7 | 0.00 | 0.00 | 0.00 | 88 | 1015.9 |
| 20260509020055 | 65 | 0 | 0.0 | 0.9 | 0.00 | 0.00 | 0.00 | 87 | 1015.6 |
| 20260509014600 | 65 | 0 | 0.0 | 0.0 | 0.00 | 0.00 | 0.00 | 87 | 1015.8 |
| 20260509013054 | 65 | 0 | 0.0 | 0.0 | 0.00 | 0.00 | 0.00 | 86 | 1015.5 |
| 20260509011552 | 65 | 0 | 0.0 | 0.0 | 0.00 | 0.00 | 0.00 | 84 | 1015.5 |
| 20260509010055 | 66 | 0 | 0.0 | 0.0 | 0.00 | 0.00 | 0.00 | 84 | 1015.5 |
| 20260509004600 | 66 | 0 | 0.0 | 3.5 | 0.00 | 0.00 | 0.00 | 83 | 1015.5 |
| 20260509003056 | 66 | 101 | 0.0 | 1.7 | 0.00 | 0.00 | 0.00 | 83 | 1015.4 |
| 20260509001552 | 66 | 0 | 0.0 | 2.6 | 0.00 | 0.00 | 0.00 | 82 | 1015.1 |
| 20260509000055 | 66 | 0 | 0.0 | 2.6 | 0.00 | 0.00 | 0.00 | 82 | 1015.0 |
| 20260508234551 | 66 | 249 | 0.0 | 1.7 | 0.00 | 0.00 | 0.00 | 81 | 1015.2 |
| 20260508233101 | 67 | 186 | 0.0 | 1.7 | 0.00 | 0.00 | 0.00 | 80 | 1014.9 |
| 20260508231552 | 67 | 146 | 0.9 | 4.3 | 0.00 | 0.00 | 0.00 | 80 | 1015.0 |
| 20260508230058 | 67 | 74 | 0.0 | 5.2 | 0.00 | 0.00 | 0.00 | 80 | 1015.1 |
| 20260508224550 | 67 | 144 | 0.0 | 4.3 | 0.00 | 0.00 | 0.00 | 79 | 1014.9 |
| 20260508223051 | 67 | 329 | 0.0 | 4.3 | 0.00 | 0.00 | 0.00 | 78 | 1014.9 |
| 20260508221552 | 67 | 166 | 0.9 | 5.2 | 0.00 | 0.00 | 0.00 | 77 | 1014.9 |
| 20260508220047 | 68 | 218 | 0.9 | 7.8 | 0.00 | 0.00 | 0.00 | 76 | 1014.9 |
| 20260508214551 | 68 | 111 | 1.7 | 5.2 | 0.00 | 0.00 | 0.00 | 76 | 1014.9 |
| 20260508213055 | 68 | 153 | 2.6 | 6.1 | 0.00 | 0.00 | 0.00 | 75 | 1014.9 |
| 20260508211556 | 68 | 94 | 0.9 | 7.0 | 0.00 | 0.00 | 0.00 | 74 | 1015.5 |
| 20260508210053 | 68 | 157 | 1.7 | 5.2 | 0.00 | 0.00 | 0.00 | 73 | 1015.1 |
| 20260508204555 | 68 | 182 | 2.6 | 7.0 | 0.00 | 0.00 | 0.00 | 72 | 1015.2 |
| 20260508203059 | 69 | 113 | 1.7 | 7.8 | 0.00 | 0.00 | 0.00 | 72 | 1014.8 |
| 20260508201558 | 69 | 163 | 3.5 | 7.8 | 0.00 | 0.00 | 0.00 | 69 | 1015.0 |
| 20260508200058 | 69 | 165 | 1.7 | 8.7 | 0.00 | 0.00 | 0.00 | 70 | 1015.4 |
| 20260508194557 | 70 | 144 | 4.3 | 8.7 | 0.00 | 0.00 | 0.00 | 68 | 1015.7 |
| 20260508193058 | 70 | 185 | 4.3 | 11.3 | 0.00 | 0.00 | 0.00 | 65 | 1015.7 |
| 20260508191558 | 71 | 186 | 4.3 | 9.6 | 0.00 | 0.00 | 0.00 | 63 | 1015.8 |
| 20260508190054 | 72 | 217 | 4.3 | 10.4 | 0.00 | 0.00 | 0.00 | 63 | 1015.9 |
| 20260508184550 | 72 | 185 | 2.6 | 10.4 | 0.00 | 0.00 | 0.00 | 64 | 1016.0 |
| 20260508183057 | 72 | 199 | 4.3 | 10.4 | 0.00 | 0.00 | 0.00 | 62 | 1016.1 |
| 20260508181554 | 71 | 158 | 3.5 | 11.3 | 0.00 | 0.00 | 0.00 | 61 | 1016.3 |
| 20260508180056 | 72 | 205 | 1.7 | 7.8 | 0.00 | 0.00 | 0.00 | 60 | 1016.2 |
| 20260508174553 | 72 | 223 | 2.6 | 7.8 | 0.00 | 0.00 | 0.00 | 62 | 1016.4 |
| 20260508173051 | 72 | 163 | 3.5 | 10.4 | 0.00 | 0.00 | 0.00 | 59 | 1016.5 |
| 20260508171605 | 72 | 143 | 3.5 | 12.2 | 0.00 | 0.00 | 0.00 | 60 | 1016.5 |
| 20260508170059 | 72 | 198 | 3.5 | 8.7 | 0.00 | 0.00 | 0.00 | 57 | 1016.8 |
| 20260508164555 | 72 | 240 | 3.5 | 9.6 | 0.00 | 0.00 | 0.00 | 57 | 1016.5 |
| 20260508163051 | 72 | 68 | 1.7 | 5.2 | 0.00 | 0.00 | 0.00 | 58 | 1016.8 |
| 20260508161559 | 71 | 328 | 0.9 | 7.0 | 0.00 | 0.00 | 0.00 | 58 | 1017.1 |
| 20260508160054 | 71 | 240 | 0.9 | 6.1 | 0.00 | 0.00 | 0.00 | 59 | 1017.5 |
| 20260508154551 | 69 | 105 | 2.6 | 6.1 | 0.00 | 0.00 | 0.00 | 60 | 1017.7 |
| 20260508153051 | 68 | 79 | 1.7 | 7.8 | 0.00 | 0.00 | 0.00 | 61 | 1017.8 |
| 20260508151556 | 68 | 104 | 1.7 | 10.4 | 0.00 | 0.00 | 0.00 | 61 | 1017.6 |